Regional Weather Roundup
Issued by NWS Boston, MA

Home | Current Version | Previous Version | Text Only | Print | Product List | Glossary On
Versions: 1 2 3 4 5 6 7 8 9 10 11 12 13 14 15 16 17 18 19 20 21 22 23 24 25 26 27 28 29 30 31 32 33 34 35 36 37 38 39 40 41 42 43 44 45 46 47 48 49 50
283
ASUS41 KBOX 221710
RWRBOX

REGIONAL WEATHER ROUNDUP
NATIONAL WEATHER SERVICE TAUNTON MA
1200 PM EST WED NOV 22 2017

NOTE:  "FAIR" INDICATES FEW OR NO CLOUDS BELOW 12,000 FEET WITH NO
SIGNIFICANT WEATHER AND/OR OBSTRUCTIONS TO VISIBILITY.

MAZALL-221800-
EASTERN MASSACHUSETTS

CITY           SKY/WX    TMP DP  RH WIND       PRES   REMARKS
BOSTON         LGT RAIN  50  50 100 E8        29.83F FOG
BEVERLY        LGT RAIN  53  52  96 SE5       29.83F FOG
LAWRENCE       RAIN      55  51  86 CALM      29.85F FOG
BEDFORD        RAIN      52  51  97 CALM      29.80F FOG
BLUE HILL        N/A     51  50  96 SE8       29.82F
NORWOOD        RAIN      55  54  96 CALM      29.83F FOG
MARSHFIELD     LGT RAIN  54  54 100 SE5       29.85F
PLYMOUTH       RAIN      55  53  93 E7        29.84F FOG
TAUNTON        LGT RAIN  53  53 100 E6        29.83F
NEW BEDFORD    LGT RAIN  53  52  96 E5        29.83F FOG
$$

MAZALL-221800-
CAPE COD AND THE ISLANDS

CITY           SKY/WX    TMP DP  RH WIND       PRES   REMARKS
FALMOUTH       LGT RAIN  54  54 100 NE5       29.86F
HYANNIS        HVY RAIN  54  53  97 NE5       29.86F FOG
CHATHAM        HVY RAIN  54  54 100 VRB3      29.87F FOG
PROVINCETOWN   RAIN      53  52  96 CALM      29.87F FOG
NANTUCKET      RAIN      56  56 100 S12       29.85F FOG
MARTHAS VNYRD  RAIN      53  53 100 NE5       29.84F FOG
$$

MAZALL-221800-
CENTRAL AND WESTERN MASSACHUSETTS

CITY           SKY/WX    TMP DP  RH WIND       PRES   REMARKS
WORCESTER      LGT RAIN  47  44  90 W13       29.83F
FITCHBURG      LGT RAIN  50  49  96 CALM      29.85S
ORANGE         LGT RAIN  42  41  96 N3        29.86F FOG
SPRINGFIELD    LGT RAIN  45  43  94 NE3       29.84F FOG
WESTFIELD      LGT RAIN  43  43 100 N3        29.85F
NORTH ADAMS    CLOUDY    42  39  89 W3        29.89F
PITTSFIELD     CLOUDY    41  36  82 NW10G17   29.87F
$$

RIZALL-221800-
RHODE ISLAND

CITY           SKY/WX    TMP DP  RH WIND       PRES   REMARKS
PROVIDENCE     RAIN      54  54 100 SE6       29.84F FOG
NEWPORT        RAIN      53  53 100 SE6       29.83F FOG
BLOCK ISLAND   LGT RAIN  54  54 100 S6        29.83F
SMITHFIELD     LGT RAIN  52  52 100 SE5       29.82F FOG
WESTERLY       LGT RAIN  55  55 100 S9        29.84F FOG
$$

CTZALL-221800-
CONNECTICUT

CITY           SKY/WX    TMP DP  RH WIND       PRES   REMARKS
BRADLEY INTL   LGT RAIN  46  45  96 NE3       29.86F
HARTFORD       LGT RAIN  51  48  89 VRB3      29.86F
BRIDGEPORT     LGT RAIN  52  44  74 N10       29.84F
DANBURY        LGT RAIN  50  43  77 NW5       29.87F
GROTON         LGT RAIN  55  54  96 S9        29.82F
NEW HAVEN      CLOUDY    52  46  80 N8        29.85F
CHESTER        LGT RAIN  52  50  93 N8        29.84F
MERIDEN        LGT RAIN  50  46  86 VRB5      29.85F
WILLIMANTIC    NOT AVBL
OXFORD         CLOUDY    47  43  86 N8        29.84F
$$

MEZ002-015-021-024-NHZ003-005-008-011-012-014-VTZ005-008-221800-
NORTHERN NEW ENGLAND

CITY           SKY/WX    TMP DP  RH WIND       PRES   REMARKS
PORTLAND ME    LGT RAIN  43  42  97 W8        29.86F FOG
BANGOR ME      LGT RAIN  48  44  86 CALM      29.90F FOG
CONCORD NH     LGT RAIN  36  34  92 SW5       29.87F FOG
MANCHESTER NH  RAIN      41  40  96 N5        29.84F FOG
NASHUA NH      RAIN      42  42 100 NW3       29.85F FOG
PORTSMOUTH NH  LGT RAIN  49  49  98 NW6       29.82F VSB 3/4
JAFFREY NH     LGT RAIN  41  41 100 CALM      29.85F FOG
KEENE NH       LGT RAIN  38  37  97 CALM      29.87F FOG
BURLINGTON VT  LGT SNOW  35  32  88 NE6       29.97S FOG     WCI  30
MT. WASHINGTON SNOW      25  25 100 W18         N/A  VSB 1/16WCI  11
$$

NYZ052-076-221800-
EASTERN NEW YORK

CITY           SKY/WX    TMP DP  RH WIND       PRES   REMARKS
ALBANY         LGT RAIN  41  36  82 NW12      29.94F
NEW YORK CITY  CLOUDY    52  45  77 NW10      29.88S
$$

ANZALL-221800-
MARINE OBSERVATIONS

STATION/POSITION TIME  TEMP    WIND        PRES    VSBY  WAVE
                       AIR SEA DIR/SP/G                  HT/PER
                 (UTC) (F)     (DEG/KT/KT) (MB)    (MI)  (FT/S)
BOSTON BUOY      1650   52 51  120/ 10/ 12 1010.1F         1/ 6
BUZZARDS BAY     1600   54     150/  2/  2 1012.3F
NANTUCKET SOUND  1650   52 50  320/ 12/ 16 1011.1F         2/ 3
MASS BAY-STELLWA 1604   51 49  150/  6/  6 1011.4F         2/ 6
ISLE OF SHOALS   1600   51     160/ 18/ 19 1011.5F
S OF BLOCK IS    NOT AVBL
$$

......................KEY.........................
  SKY/WX - SKY CONDITION/PRESENT WEATHER
  TMP    - TEMPERATURE IN FAHRENHEIT
  DWPT   - DEWPOINT IN FAHRENHEIT
  RH     - RELATIVE HUMIDITY IN PERCENT
  WIND   - DIRECTION AND SPEED IN MPH
  PRES   - MEAN SEA LEVEL PRESSURE IN INCHES OF HG
  WCI    - WIND CHILL INDEX
  VSB    - VISIBILITY IN MILES
  HX     - HEAT INDEX
  TC     - TEMPERATURE IN CELSIUS
  VRB    - VARIABLE WIND DIRECTION
  N/A    - NOT AVAILABLE




USA.gov is the U.S. government's official web portal to all federal, state and local government web resources and services.